Home > Time Zones > World Clock > Weather > Mali > Bamako > Past weeks

Flag for Mali Weather past 2 weeks in Bamako, Mali

Now
63 °F

Clear.


Feels Like: 63 °F
Forecast: 61 / 94 °F
Wind: 3 mph from Northeast

Location: Bamako / Senou

Current Time: Jan 30, 2015 at 5:04:27 AM

Latest Report: Jan 30, 2015 at 4:30 AM


Visibility: 10 mi

Pressure: 29.95 "Hg

Humidity: 17%

Dew point: 18 °F

Location of BamakoLocation

Historic Weather in Bamako — Graph

°F

Bamako temperature yesterday

Maximum temperature yesterday: 91 °F (at 2:30 PM)
Minimum temperature yesterday: 59 °F (at 6:30 AM)
Average temperature yesterday: 76 °F

Past Weeks' High & Low Weather Summary

 TemperatureHumidityPressure
High95 °F (Jan 19, 4:30 PM)56% (Jan 19, 3:30 AM)30.09 "Hg (Jan 19, 3:30 AM)
Low55 °F (Jan 15, 6:00 AM)6% (Jan 28, 12:30 PM)29.83 "Hg (Jan 20, 4:00 PM)
Average77 °F19%29.98 "Hg
* Reported Jan 15 3:00 AM — Jan 30 3:30 AM, Bamako, Weather by CustomWeather, © 2014

Note: Actual official high and low records may vary slightly from our data, if they occured in-between our weather recording intervals... More about our weather records

Advertising

Bamako weather history for previous 24 hours

 ConditionsComfort  
Time TempWeatherWind HumidityBarometerVisibility
3:30 AM
Jan 30
64 °FClear.7 mph19%29.98 "Hg10 mi
2:30 AM66 °FClear.7 mph18%29.98 "Hg10 mi
2:00 AM66 °FClear.7 mph21%29.98 "Hg10 mi
1:30 AM64 °FPassing clouds.6 mph22%29.98 "HgN/A
1:00 AM66 °FClear.6 mph17%29.98 "Hg10 mi
12:30 AM68 °FClear.5 mph20%30.01 "Hg10 mi
12:00 AM73 °FClear.7 mph17%29.98 "Hg10 mi
11:30 PM
Jan 29
68 °FClear.7 mph21%29.98 "Hg10 mi
11:00 PM72 °FClear.5 mph14%30.01 "Hg10 mi
10:30 PM72 °FClear.8 mph14%30.01 "Hg10 mi
10:00 PM73 °FClear.7 mph12%30.01 "Hg10 mi
9:30 PM75 °FClear.8 mph12%29.98 "Hg10 mi
9:00 PM75 °FClear.7 mph13%29.98 "Hg10 mi
8:30 PM73 °FClear.7 mph15%29.98 "Hg10 mi
8:00 PM75 °FClear.7 mph13%29.95 "Hg10 mi
7:30 PM77 °FClear.7 mph11%29.95 "Hg10 mi
7:00 PM79 °FClear.7 mph9%29.92 "Hg10 mi
6:30 PM84 °FSunny.7 mph7%29.92 "Hg10 mi
6:00 PM88 °FSunny.9 mph7%29.92 "Hg10 mi
5:30 PM88 °FSunny.8 mph6%29.92 "Hg10 mi
5:00 PM91 °FPassing clouds.7 mph6%29.92 "HgN/A
4:30 PM91 °FSunny.3 mph6%29.92 "Hg10 mi
4:00 PM91 °FPassing clouds.8 mph6%29.92 "HgN/A
3:30 PM91 °FSunny.7 mph6%29.92 "Hg10 mi
3:00 PM91 °FPassing clouds.9 mph6%29.92 "HgN/A
2:30 PM91 °FClear.9 mph6%29.92 "Hg5 mi
2:00 PM90 °FClear.7 mph6%29.95 "Hg5 mi
1:30 PM90 °FClear.8 mph7%29.95 "Hg5 mi
1:00 PM88 °FClear.8 mph7%29.98 "Hg5 mi
12:30 PM86 °FClear.8 mph7%30.01 "Hg5 mi
12:00 PM82 °FClear.10 mph8%30.01 "Hg5 mi
11:30 AM82 °FClear.12 mph8%30.04 "Hg5 mi
10:00 AM77 °FClear.15 mph9%30.04 "Hg5 mi
9:30 AM75 °FClear.18 mph9%30.04 "Hg5 mi
9:00 AM73 °FClear.16 mph9%30.04 "Hg5 mi
8:30 AM72 °FClear.12 mph11%30.01 "Hg5 mi
8:00 AM64 °FClear.5 mph16%30.01 "Hg5 mi
7:30 AM61 °FClear.7 mph20%30.01 "Hg5 mi
7:00 AM63 °FClear.7 mph19%30.01 "Hg5 mi
6:30 AM59 °FClear.7 mph23%29.98 "Hg10 mi
6:00 AM61 °FClear.5 mph23%29.98 "Hg10 mi
5:30 AM63 °FClear.6 mph20%29.98 "Hg10 mi
5:00 AM61 °FClear.7 mph22%29.98 "Hg10 mi
Weather by CustomWeather, © 2014

See weather overviewHow to use our weather pages